{"data":{"norad_id":59546,"intl_designator":"2024-074N","name":"STARLINK-31519","alt_names":[],"object_type":"PAYLOAD","status":"ACTIVE","operator":null,"country":"US","launch_date":"2024-04-18","launch_site_code":"AFETR","launch_vehicle":null,"mission":null,"orbit_class":"UNKNOWN","rcs_meters":null,"size_class":null,"mass_kg":null,"dimensions":null,"purposes":["comms"],"wikipedia_slug":null,"has_3d_model":false,"image_url":null,"decayed_at":null,"tle_current":{"epoch":"2026-05-24T16:51:09.489888Z","epoch_age_seconds":97438,"freshness":"FRESH","line1":"1 59546U 24074N   26144.70219317  .00004341  00000+0  16720-3 0  9993","line2":"2 59546  43.0000 273.8884 0001197 269.8450  90.2265 15.27579417117641","mean_motion":15.27579417,"eccentricity":0.0001197,"inclination_deg":43,"raan_deg":273.8884,"arg_perigee_deg":269.845,"mean_anomaly_deg":90.2265,"bstar":0.0001672,"rev_number":11764,"period_min":94.266784690514,"perigee_km":482.22955756728,"apogee_km":483.8721259366,"semimajor_km":6861.1878417519,"source":"CELESTRAK","updated_at":"2026-05-25T13:38:18.981483Z"}}}